Home > Weather > Alsdorf > Past weeks

Flag for Germany Weather for the Past 2 Weeks in Alsdorf, North Rhine-Westphalia, Germany

Now
30 °F

Clear.


Feels Like: 30 °F
Forecast: 32 / 42 °F
Wind: 2 mph from East

Location: Geilenkirchen Airport

Current Time: Feb 12, 2016 at 11:40:41 PM

Latest Report: Feb 12, 2016 at 8:50 PM


Visibility: 10 mi

Pressure: 29.42 "Hg

Humidity: 93%

Dew point: 28 °F

Location of AlsdorfLocation

Historic Weather in Alsdorf — Graph

°F

Alsdorf Temperature Yesterday

Maximum temperature yesterday: 45 °F (at 1:50 PM)
Minimum temperature yesterday: 37 °F (at 7:50 AM)
Average temperature yesterday: 41 °F

High & Low Weather Summary for the Past Weeks

 TemperatureHumidityPressure
High54 °F (Jan 31, 10:50 PM)100% (Jan 31, 8:50 PM)30.33 "Hg (Jan 31, 8:50 PM)
Low30 °F (Feb 12, 8:50 PM)57% (Feb 3, 2:50 PM)28.82 "Hg (Feb 9, 2:50 PM)
Average43 °F84%29.83 "Hg
* Reported Jan 28 8:50 PM — Feb 12 8:50 PM, Alsdorf, Weather by CustomWeather, © 2016

Note: Actual official high and low records may vary slightly from our data, if they occured in-between our weather recording intervals... More about our weather records

Advertising

Alsdorf Weather History for the Previous 24 Hours

 ConditionsComfort  
Time TempWeatherWind HumidityBarometerVisibility
8:50 PM
Fri, Feb 12
30 °FClear.2 mph93%29.42 "Hg10 mi
7:50 PM32 °FClear.6 mph80%29.42 "Hg10 mi
6:50 PM36 °FClear.12 mph75%29.42 "Hg10 mi
5:50 PM37 °FPassing clouds.14 mph75%29.42 "HgN/A
4:50 PM39 °FScattered clouds.16 mph70%29.42 "HgN/A
3:50 PM43 °FScattered clouds.13 mph61%29.42 "HgN/A
2:50 PM41 °FScattered clouds.12 mph66%29.45 "HgN/A
1:50 PM41 °FScattered clouds.7 mph66%29.47 "HgN/A
12:50 PM41 °FScattered clouds.8 mph66%29.50 "HgN/A
11:50 AM43 °FPassing clouds.7 mph66%29.50 "HgN/A
10:50 AM43 °FPassing clouds.6 mph66%29.53 "HgN/A
9:50 AM39 °FSunny.6 mph81%29.53 "Hg10 mi
8:50 AM36 °FSunny.1 mph87%29.56 "Hg10 mi
7:50 AM36 °FClear.2 mph87%29.56 "Hg10 mi
6:50 AM37 °FClear.5 mph81%29.59 "Hg10 mi
5:50 AM37 °FPassing clouds.7 mph81%29.59 "HgN/A
4:50 AM39 °FPartly cloudy.6 mph81%29.62 "HgN/A
3:50 AM39 °FPartly cloudy.8 mph87%29.62 "HgN/A
2:50 AM37 °FPartly cloudy.6 mph93%29.65 "HgN/A
1:50 AM36 °FPartly cloudy.5 mph93%29.65 "HgN/A
12:50 AM36 °FSprinkles. Partly cloudy.7 mph93%29.65 "HgN/A
11:50 PM
Thu, Feb 11
39 °FPartly cloudy.7 mph87%29.65 "HgN/A
Weather by CustomWeather, © 2016

See weather overviewHow to use our weather pages